Location: Ladrillo (historical)
(32.8195°N, 117.2231°W)
Time: 00:01:12
(UTC+00:00)

Altair - Pass Details

Date: 01 March 2021
Orbit: 1501 x 1683 km, 47.2° (Epoch: 16 April)

Event Time Altitude Azimuth Distance (km) Brightness Sun altitude
Exits shadow 10:36:13 12° 148° (SSE) 3,768 9.5 -46.0°
Drops below altitude 10° 10:36:44 10° 147° (SSE) 3,924 9.6 -45.9°
Sets 10:39:58 0° 144° (SE) 4,918 10.2 -45.3°
